QPF
0.00 0.00 0.00 0.00 0.02 0.03 0.02 0.01 0.01 0.01 0.01 0.01 0.01 0.01 0.01 0.01 0.01 0.02 0.02 0.02 0.02 0.02 0.01 0.01 0.01 0.01 0.01 0.01 0.01 0.01 0.02 0.02 0.02 0.01 0.01 0.01 0.02 0.02 0.02 0.02 0.01 0.01 0.01
0.00 0.00 0.00 0.00 0.01 0.04 0.04 0.02 0.01 0.01 0.01 0.01 0.01 0.01 0.01 0.01 0.02 0.02 0.03 0.02 0.02 0.02 0.02 0.01 0.01 0.01 0.01 0.01 0.01 0.02 0.02 0.01 0.02 0.01 0.01 0.01 0.01 0.01 0.01 0.01 0.01 0.01 0.01
0.00 0.00 0.00 0.00 0.01 0.03 0.05 0.04 0.02 0.01 0.01 0.01 0.01 0.01 0.01 0.02 0.03 0.04 0.04 0.03 0.03 0.03 0.02 0.02 0.02 0.01 0.02 0.01 0.01 0.02 0.01 0.01 0.01 0.02 0.02 0.02 0.01 0.01 0.01 0.01 0.01 0.01 0.01
0.00 0.00 0.00 0.00 0.01 0.02 0.05 0.06 0.04 0.02 0.01 0.01 0.01 0.01 0.01 0.02 0.02 0.03 0.03 0.03 0.03 0.03 0.02 0.02 0.02 0.02 0.02 0.02 0.01 0.01 0.01 0.01 0.01 0.02 0.02 0.02 0.02 0.01 0.01 0.01 0.00 0.00 0.00
0.00 0.00 0.00 0.00 0.00 0.01 0.03 0.06 0.07 0.05 0.03 0.01 0.01 0.00 0.01 0.01 0.01 0.02 0.03 0.03 0.02 0.02 0.02 0.02 0.01 0.01 0.02 0.02 0.02 0.01 0.01 0.01 0.02 0.02 0.02 0.01 0.01 0.01 0.01 0.00 0.00 0.00 0.00
0.01 0.01 0.00 0.00 0.00 0.01 0.02 0.03 0.05 0.07 0.06 0.03 0.01 0.01 0.01 0.01 0.01 0.02 0.02 0.03 0.02 0.02 0.02 0.02 0.01 0.01 0.01 0.02 0.02 0.02 0.02 0.02 0.02 0.02 0.01 0.01 0.01 0.01 0.01 0.01 0.01 0.01 0.01
0.00 0.01 0.01 0.01 0.00 0.01 0.01 0.02 0.03 0.03 0.04 0.05 0.03 0.01 0.01 0.01 0.01 0.02 0.03 0.04 0.03 0.02 0.02 0.01 0.01 0.01 0.01 0.01 0.01 0.01 0.01 0.01 0.02 0.02 0.01 0.01 0.01 0.01 0.02 0.02 0.01 0.01 0.01
0.00 0.00 0.01 0.02 0.01 0.01 0.01 0.01 0.02 0.02 0.02 0.03 0.03 0.02 0.01 0.01 0.01 0.02 0.03 0.04 0.04 0.03 0.02 0.01 0.01 0.01 0.01 0.01 0.01 0.01 0.00 0.00 0.01 0.01 0.01 0.01 0.01 0.01 0.01 0.02 0.02 0.02 0.01
0.00 0.00 0.01 0.02 0.03 0.01 0.01 0.01 0.01 0.02 0.02 0.02 0.03 0.02 0.02 0.01 0.02 0.02 0.03 0.03 0.03 0.03 0.03 0.02 0.01 0.01 0.01 0.02 0.02 0.01 0.01 0.01 0.01 0.02 0.02 0.02 0.02 0.02 0.01 0.02 0.03 0.03 0.02
0.00 0.00 0.00 0.02 0.04 0.03 0.02 0.01 0.01 0.01 0.02 0.02 0.03 0.03 0.02 0.02 0.02 0.03 0.03 0.03 0.03 0.03 0.03 0.02 0.02 0.01 0.02 0.02 0.02 0.02 0.02 0.01 0.01 0.01 0.01 0.01 0.01 0.01 0.01 0.02 0.03 0.05 0.05
0.00 0.00 0.00 0.01 0.03 0.04 0.05 0.02 0.02 0.02 0.02 0.03 0.03 0.04 0.03 0.02 0.02 0.02 0.03 0.04 0.03 0.02 0.02 0.02 0.02 0.02 0.02 0.02 0.03 0.03 0.02 0.02 0.01 0.01 0.01 0.01 0.01 0.01 0.01 0.01 0.02 0.05 0.06
0.00 0.00 0.01 0.01 0.01 0.02 0.06 0.04 0.02 0.02 0.03 0.03 0.04 0.05 0.05 0.03 0.02 0.02 0.03 0.05 0.04 0.02 0.01 0.01 0.02 0.02 0.02 0.02 0.03 0.03 0.02 0.02 0.01 0.01 0.01 0.01 0.01 0.01 0.01 0.01 0.02 0.03 0.04
0.00 0.01 0.01 0.01 0.01 0.02 0.04 0.04 0.03 0.03 0.03 0.03 0.03 0.05 0.05 0.04 0.03 0.04 0.04 0.04 0.03 0.02 0.02 0.02 0.02 0.02 0.02 0.01 0.01 0.02 0.01 0.01 0.01 0.01 0.01 0.01 0.01 0.01 0.02 0.02 0.02 0.02 0.02
0.01 0.01 0.01 0.02 0.02 0.02 0.02 0.03 0.03 0.04 0.04 0.04 0.03 0.04 0.05 0.05 0.04 0.03 0.03 0.03 0.03 0.03 0.02 0.02 0.02 0.02 0.02 0.01 0.01 0.01 0.01 0.01 0.02 0.02 0.01 0.01 0.01 0.01 0.01 0.01 0.02 0.02 0.03
0.01 0.01 0.01 0.02 0.03 0.03 0.03 0.03 0.03 0.03 0.03 0.04 0.04 0.05 0.06 0.05 0.04 0.03 0.03 0.03 0.03 0.03 0.03 0.02 0.02 0.02 0.02 0.02 0.01 0.01 0.01 0.01 0.01 0.01 0.01 0.02 0.01 0.01 0.01 0.01 0.01 0.02 0.03
0.02 0.02 0.02 0.03 0.03 0.04 0.04 0.04 0.04 0.04 0.04 0.04 0.04 0.06 0.06 0.04 0.04 0.04 0.04 0.04 0.04 0.04 0.04 0.03 0.02 0.02 0.02 0.01 0.01 0.01 0.01 0.01 0.01 0.01 0.02 0.02 0.01 0.01 0.01 0.01 0.01 0.02 0.03
0.02 0.03 0.03 0.03 0.03 0.04 0.04 0.04 0.04 0.04 0.05 0.04 0.05 0.05 0.05 0.04 0.03 0.04 0.04 0.04 0.04 0.05 0.04 0.03 0.02 0.02 0.01 0.02 0.01 0.01 0.01 0.01 0.01 0.01 0.02 0.02 0.02 0.01 0.01 0.01 0.02 0.02 0.03
0.02 0.03 0.03 0.03 0.03 0.04 0.04 0.03 0.03 0.03 0.04 0.04 0.05 0.06 0.05 0.03 0.03 0.03 0.04 0.04 0.04 0.04 0.04 0.03 0.02 0.02 0.01 0.01 0.01 0.01 0.01 0.01 0.01 0.02 0.02 0.01 0.02 0.01 0.01 0.01 0.02 0.02 0.02
0.02 0.02 0.02 0.03 0.03 0.03 0.03 0.03 0.04 0.04 0.04 0.04 0.04 0.04 0.03 0.03 0.04 0.03 0.03 0.03 0.03 0.03 0.03 0.03 0.02 0.02 0.01 0.01 0.01 0.01 0.01 0.01 0.01 0.02 0.01 0.01 0.01 0.01 0.01 0.01 0.02 0.02 0.02
0.01 0.02 0.02 0.02 0.03 0.03 0.03 0.03 0.03 0.03 0.04 0.03 0.03 0.03 0.02 0.02 0.02 0.03 0.02 0.02 0.02 0.02 0.02 0.02 0.02 0.02 0.01 0.01 0.01 0.01 0.01 0.01 0.01 0.01 0.01 0.01 0.01 0.02 0.02 0.02 0.02 0.03 0.03
0.01 0.02 0.02 0.02 0.02 0.02 0.02 0.02 0.02 0.02 0.03 0.02 0.02 0.02 0.02 0.02 0.02 0.02 0.02 0.01 0.01 0.02 0.02 0.02 0.02 0.02 0.02 0.02 0.01 0.01 0.01 0.01 0.01 0.01 0.01 0.01 0.01 0.01 0.01 0.02 0.02 0.02 0.02
0.01 0.02 0.02 0.02 0.02 0.01 0.01 0.02 0.02 0.02 0.02 0.02 0.02 0.02 0.02 0.01 0.01 0.01 0.01 0.01 0.01 0.01 0.01 0.01 0.01 0.02 0.02 0.02 0.02 0.01 0.01 0.01 0.01 0.01 0.02 0.01 0.01 0.02 0.02 0.02 0.02 0.02 0.02
0.01 0.01 0.01 0.01 0.01 0.01 0.01 0.01 0.02 0.02 0.02 0.02 0.02 0.02 0.01 0.01 0.01 0.01 0.01 0.01 0.01 0.01 0.02 0.02 0.02 0.02 0.02 0.02 0.02 0.02 0.02 0.02 0.01 0.02 0.02 0.02 0.02 0.02 0.02 0.02 0.02 0.02 0.02
0.02 0.01 0.01 0.01 0.01 0.01 0.01 0.01 0.01 0.02 0.02 0.02 0.02 0.02 0.01 0.01 0.01 0.01 0.01 0.01 0.01 0.01 0.01 0.01 0.01 0.02 0.01 0.01 0.01 0.01 0.01 0.01 0.02 0.02 0.03 0.03 0.03 0.02 0.02 0.02 0.02 0.02 0.02
0.01 0.01 0.01 0.01 0.01 0.01 0.01 0.01 0.01 0.01 0.02 0.02 0.02 0.02 0.01 0.01 0.01 0.01 0.01 0.01 0.01 0.01 0.01 0.01 0.01 0.01 0.01 0.01 0.01 0.01 0.01 0.01 0.02 0.03 0.03 0.03 0.02 0.02 0.02 0.02 0.02 0.02 0.02
0.01 0.01 0.01 0.01 0.01 0.01 0.01 0.01 0.01 0.01 0.01 0.01 0.01 0.01 0.01 0.01 0.01 0.01 0.01 0.01 0.01 0.01 0.01 0.01 0.01 0.00 0.01 0.01 0.01 0.01 0.01 0.01 0.02 0.02 0.03 0.03 0.02 0.02 0.02 0.02 0.02 0.02 0.02
MSLP
1000.75 1001.32 1001.93 1002.57 1003.23 1003.88 1004.54 1005.20 1005.85 1006.50 1007.15 1007.80 1008.45 1009.10 1009.76 1010.43 1011.12 1011.82 1012.55 1013.28 1014.02 1014.74 1015.43 1016.07 1016.66 1017.20 1017.69 1018.15 1018.61 1019.08 1019.56 1020.07 1020.58 1021.07 1021.49 1021.82 1022.03 1022.10 1022.03 1021.83 1021.53 1021.16 1020.75
1000.28 1000.84 1001.46 1002.12 1002.81 1003.50 1004.18 1004.86 1005.53 1006.19 1006.85 1007.51 1008.18 1008.87 1009.58 1010.32 1011.09 1011.89 1012.71 1013.54 1014.36 1015.15 1015.89 1016.57 1017.18 1017.72 1018.21 1018.66 1019.11 1019.56 1020.02 1020.50 1020.98 1021.43 1021.81 1022.10 1022.27 1022.30 1022.19 1021.96 1021.64 1021.23 1020.79
1000.16 1000.72 1001.35 1002.04 1002.74 1003.45 1004.16 1004.85 1005.52 1006.18 1006.84 1007.51 1008.19 1008.90 1009.65 1010.44 1011.28 1012.16 1013.06 1013.96 1014.85 1015.70 1016.47 1017.18 1017.79 1018.33 1018.80 1019.23 1019.65 1020.06 1020.48 1020.92 1021.34 1021.74 1022.07 1022.31 1022.44 1022.44 1022.31 1022.06 1021.72 1021.31 1020.85
1000.39 1000.96 1001.60 1002.29 1003.01 1003.74 1004.45 1005.15 1005.82 1006.48 1007.13 1007.79 1008.48 1009.20 1009.98 1010.81 1011.69 1012.62 1013.57 1014.53 1015.46 1016.33 1017.13 1017.84 1018.45 1018.97 1019.41 1019.81 1020.18 1020.55 1020.91 1021.29 1021.65 1021.99 1022.26 1022.46 1022.55 1022.52 1022.37 1022.12 1021.78 1021.37 1020.91
1000.94 1001.50 1002.14 1002.84 1003.56 1004.30 1005.02 1005.72 1006.39 1007.04 1007.69 1008.35 1009.03 1009.76 1010.55 1011.39 1012.29 1013.24 1014.22 1015.19 1016.13 1017.01 1017.81 1018.50 1019.09 1019.58 1019.99 1020.35 1020.67 1020.98 1021.28 1021.59 1021.89 1022.16 1022.38 1022.52 1022.58 1022.53 1022.38 1022.13 1021.79 1021.39 1020.92
1001.74 1002.28 1002.91 1003.59 1004.32 1005.05 1005.77 1006.47 1007.15 1007.81 1008.46 1009.12 1009.80 1010.53 1011.31 1012.15 1013.05 1013.99 1014.95 1015.91 1016.83 1017.69 1018.45 1019.12 1019.67 1020.13 1020.50 1020.80 1021.07 1021.32 1021.57 1021.81 1022.04 1022.25 1022.41 1022.52 1022.54 1022.47 1022.32 1022.07 1021.75 1021.35 1020.89
1002.68 1003.21 1003.81 1004.48 1005.19 1005.91 1006.63 1007.34 1008.03 1008.71 1009.37 1010.04 1010.73 1011.45 1012.22 1013.04 1013.91 1014.81 1015.73 1016.65 1017.52 1018.33 1019.04 1019.66 1020.17 1020.57 1020.90 1021.16 1021.38 1021.58 1021.76 1021.94 1022.11 1022.26 1022.37 1022.44 1022.43 1022.35 1022.19 1021.95 1021.64 1021.25 1020.79
1003.70 1004.20 1004.78 1005.42 1006.10 1006.82 1007.54 1008.27 1008.98 1009.67 1010.36 1011.04 1011.74 1012.46 1013.21 1014.00 1014.82 1015.67 1016.53 1017.37 1018.17 1018.90 1019.55 1020.10 1020.55 1020.91 1021.19 1021.40 1021.58 1021.73 1021.86 1021.99 1022.11 1022.21 1022.28 1022.30 1022.27 1022.18 1022.02 1021.78 1021.47 1021.09 1020.64
1004.72 1005.20 1005.75 1006.36 1007.02 1007.73 1008.46 1009.20 1009.93 1010.66 1011.37 1012.08 1012.79 1013.50 1014.23 1014.98 1015.74 1016.52 1017.29 1018.05 1018.76 1019.40 1019.97 1020.45 1020.83 1021.14 1021.37 1021.54 1021.67 1021.78 1021.88 1021.96 1022.04 1022.10 1022.13 1022.13 1022.08 1021.97 1021.81 1021.57 1021.28 1020.90 1020.46
1005.72 1006.17 1006.69 1007.28 1007.93 1008.62 1009.36 1010.11 1010.88 1011.63 1012.38 1013.10 1013.82 1014.52 1015.23 1015.93 1016.63 1017.33 1018.01 1018.66 1019.27 1019.82 1020.30 1020.70 1021.02 1021.26 1021.45 1021.58 1021.68 1021.76 1021.82 1021.88 1021.92 1021.95 1021.96 1021.94 1021.87 1021.76 1021.59 1021.36 1021.07 1020.71 1020.27
1006.66 1007.10 1007.60 1008.17 1008.81 1009.50 1010.24 1011.01 1011.79 1012.57 1013.34 1014.08 1014.80 1015.49 1016.16 1016.81 1017.44 1018.05 1018.64 1019.20 1019.70 1020.15 1020.54 1020.86 1021.11 1021.31 1021.45 1021.55 1021.62 1021.67 1021.72 1021.75 1021.78 1021.79 1021.79 1021.75 1021.67 1021.55 1021.38 1021.16 1020.87 1020.52 1020.09
1007.55 1007.99 1008.48 1009.03 1009.66 1010.36 1011.10 1011.88 1012.67 1013.47 1014.24 1014.98 1015.69 1016.35 1016.98 1017.58 1018.14 1018.67 1019.17 1019.62 1020.03 1020.40 1020.70 1020.95 1021.14 1021.29 1021.39 1021.47 1021.52 1021.56 1021.59 1021.62 1021.64 1021.64 1021.62 1021.58 1021.50 1021.37 1021.20 1020.97 1020.69 1020.34 1019.93
1008.38 1008.82 1009.31 1009.87 1010.49 1011.19 1011.93 1012.71 1013.51 1014.29 1015.05 1015.78 1016.46 1017.09 1017.67 1018.20 1018.70 1019.15 1019.56 1019.94 1020.27 1020.55 1020.79 1020.97 1021.12 1021.23 1021.30 1021.36 1021.40 1021.43 1021.47 1021.49 1021.51 1021.51 1021.49 1021.44 1021.36 1021.23 1021.05 1020.82 1020.53 1020.18 1019.77
1009.14 1009.59 1010.09 1010.66 1011.29 1011.98 1012.72 1013.49 1014.27 1015.03 1015.77 1016.46 1017.09 1017.67 1018.20 1018.67 1019.10 1019.49 1019.83 1020.14 1020.40 1020.63 1020.81 1020.96 1021.07 1021.15 1021.21 1021.26 1021.30 1021.33 1021.37 1021.40 1021.42 1021.43 1021.41 1021.36 1021.26 1021.12 1020.93 1020.69 1020.39 1020.03 1019.60
1009.83 1010.30 1010.82 1011.40 1012.04 1012.73 1013.46 1014.21 1014.96 1015.68 1016.37 1017.01 1017.59 1018.11 1018.58 1018.99 1019.36 1019.69 1019.98 1020.24 1020.46 1020.64 1020.79 1020.91 1021.00 1021.08 1021.14 1021.18 1021.23 1021.27 1021.32 1021.36 1021.39 1021.40 1021.37 1021.32 1021.21 1021.06 1020.84 1020.57 1020.25 1019.86 1019.41
1010.45 1010.94 1011.48 1012.08 1012.73 1013.43 1014.14 1014.86 1015.57 1016.24 1016.87 1017.44 1017.96 1018.42 1018.82 1019.18 1019.51 1019.79 1020.04 1020.27 1020.46 1020.63 1020.76 1020.87 1020.96 1021.04 1021.10 1021.16 1021.22 1021.27 1021.33 1021.37 1021.41 1021.41 1021.39 1021.31 1021.19 1021.01 1020.77 1020.46 1020.10 1019.67 1019.18
1011.01 1011.53 1012.10 1012.72 1013.38 1014.07 1014.76 1015.45 1016.11 1016.72 1017.28 1017.78 1018.23 1018.63 1018.98 1019.30 1019.58 1019.83 1020.06 1020.27 1020.45 1020.61 1020.75 1020.86 1020.96 1021.04 1021.11 1021.19 1021.26 1021.32 1021.38 1021.43 1021.46 1021.46 1021.42 1021.33 1021.18 1020.96 1020.68 1020.34 1019.93 1019.46 1018.92
1011.54 1012.08 1012.68 1013.32 1013.99 1014.67 1015.34 1015.98 1016.59 1017.13 1017.63 1018.07 1018.45 1018.79 1019.10 1019.37 1019.63 1019.86 1020.08 1020.28 1020.46 1020.62 1020.76 1020.88 1020.99 1021.08 1021.17 1021.25 1021.33 1021.40 1021.46 1021.51 1021.53 1021.51 1021.44 1021.32 1021.14 1020.89 1020.57 1020.18 1019.73 1019.21 1018.63
1012.06 1012.64 1013.26 1013.91 1014.58 1015.25 1015.89 1016.48 1017.03 1017.52 1017.95 1018.32 1018.65 1018.95 1019.22 1019.47 1019.70 1019.92 1020.13 1020.33 1020.51 1020.67 1020.81 1020.94 1021.05 1021.14 1021.23 1021.32 1021.39 1021.46 1021.52 1021.55 1021.55 1021.51 1021.41 1021.26 1021.04 1020.75 1020.40 1019.97 1019.48 1018.93 1018.31
1012.62 1013.22 1013.86 1014.52 1015.18 1015.81 1016.41 1016.96 1017.45 1017.88 1018.25 1018.58 1018.86 1019.12 1019.36 1019.59 1019.82 1020.03 1020.23 1020.42 1020.59 1020.75 1020.89 1021.00 1021.11 1021.20 1021.28 1021.35 1021.41 1021.46 1021.50 1021.51 1021.48 1021.41 1021.28 1021.09 1020.84 1020.52 1020.13 1019.68 1019.16 1018.59 1017.96
1013.23 1013.85 1014.49 1015.13 1015.77 1016.37 1016.92 1017.41 1017.84 1018.22 1018.55 1018.83 1019.09 1019.32 1019.55 1019.77 1019.98 1020.19 1020.38 1020.56 1020.71 1020.85 1020.97 1021.06 1021.14 1021.20 1021.25 1021.30 1021.33 1021.36 1021.36 1021.34 1021.28 1021.17 1021.01 1020.79 1020.51 1020.16 1019.75 1019.28 1018.76 1018.19 1017.56
1013.90 1014.51 1015.14 1015.76 1016.35 1016.90 1017.40 1017.84 1018.21 1018.54 1018.83 1019.09 1019.32 1019.54 1019.76 1019.97 1020.18 1020.37 1020.55 1020.70 1020.83 1020.94 1021.01 1021.06 1021.10 1021.12 1021.13 1021.13 1021.13 1021.11 1021.08 1021.02 1020.93 1020.79 1020.59 1020.34 1020.04 1019.67 1019.25 1018.78 1018.26 1017.70 1017.10
1014.59 1015.19 1015.78 1016.36 1016.90 1017.40 1017.83 1018.21 1018.54 1018.83 1019.08 1019.32 1019.54 1019.76 1019.98 1020.18 1020.38 1020.56 1020.71 1020.83 1020.92 1020.97 1020.99 1020.99 1020.96 1020.93 1020.88 1020.83 1020.78 1020.72 1020.65 1020.55 1020.42 1020.25 1020.03 1019.76 1019.43 1019.06 1018.64 1018.17 1017.67 1017.14 1016.56
1015.28 1015.84 1016.40 1016.92 1017.40 1017.83 1018.20 1018.53 1018.81 1019.07 1019.30 1019.52 1019.74 1019.96 1020.17 1020.37 1020.55 1020.71 1020.83 1020.91 1020.95 1020.94 1020.90 1020.82 1020.73 1020.63 1020.52 1020.41 1020.31 1020.20 1020.09 1019.95 1019.79 1019.59 1019.35 1019.07 1018.73 1018.36 1017.94 1017.50 1017.02 1016.51 1015.97
1015.92 1016.44 1016.95 1017.41 1017.82 1018.19 1018.51 1018.78 1019.02 1019.25 1019.46 1019.67 1019.89 1020.11 1020.31 1020.51 1020.67 1020.80 1020.89 1020.92 1020.90 1020.83 1020.72 1020.58 1020.41 1020.24 1020.07 1019.91 1019.76 1019.60 1019.45 1019.28 1019.09 1018.88 1018.63 1018.33 1018.00 1017.63 1017.23 1016.80 1016.34 1015.87 1015.36
1016.49 1016.97 1017.41 1017.82 1018.17 1018.48 1018.74 1018.97 1019.18 1019.38 1019.58 1019.79 1020.00 1020.21 1020.41 1020.59 1020.73 1020.83 1020.88 1020.86 1020.78 1020.65 1020.47 1020.27 1020.04 1019.81 1019.58 1019.37 1019.17 1018.98 1018.79 1018.60 1018.40 1018.17 1017.91 1017.61 1017.29 1016.93 1016.54 1016.13 1015.70 1015.25 1014.78
Thickness
5469 5469 5467 5467 5466 5465 5465 5465 5464 5464 5463 5463 5463 5464 5464 5464 5463 5463 5463 5462 5462 5462 5462 5461 5460 5460 5459 5459 5458 5458 5457 5457 5458 5460 5460 5461 5462 5462 5463 5464 5465 5466 5468
5459 5457 5456 5456 5455 5454 5454 5454 5454 5453 5453 5453 5453 5453 5453 5453 5453 5452 5452 5452 5452 5452 5452 5451 5451 5450 5449 5449 5448 5447 5447 5447 5447 5448 5450 5450 5450 5452 5453 5453 5454 5455 5456
5448 5447 5445 5445 5444 5444 5444 5444 5443 5443 5443 5443 5442 5442 5442 5442 5442 5442 5442 5442 5442 5443 5442 5442 5441 5440 5440 5439 5439 5438 5438 5438 5437 5438 5439 5439 5440 5441 5442 5443 5444 5445 5446
5438 5436 5436 5436 5435 5435 5434 5434 5433 5433 5432 5432 5432 5432 5432 5432 5432 5432 5432 5433 5433 5433 5433 5433 5432 5431 5431 5431 5431 5430 5429 5428 5428 5429 5430 5430 5431 5431 5431 5433 5435 5436 5437
5427 5427 5427 5426 5426 5425 5425 5424 5424 5424 5423 5423 5422 5422 5422 5422 5423 5424 5424 5424 5424 5424 5424 5424 5424 5424 5424 5424 5424 5423 5421 5420 5420 5421 5422 5422 5422 5422 5422 5423 5425 5426 5427
5418 5418 5418 5417 5416 5416 5415 5415 5415 5414 5413 5413 5412 5412 5412 5414 5416 5416 5416 5416 5416 5415 5416 5416 5416 5416 5416 5416 5417 5416 5416 5414 5413 5413 5414 5414 5414 5414 5414 5415 5415 5416 5419
5410 5409 5409 5408 5407 5407 5407 5406 5405 5404 5403 5403 5403 5404 5404 5406 5408 5409 5409 5409 5408 5408 5408 5408 5409 5409 5408 5408 5408 5409 5409 5409 5409 5408 5407 5407 5407 5407 5407 5407 5407 5407 5409
5401 5401 5400 5399 5398 5398 5397 5396 5396 5395 5394 5394 5395 5396 5397 5398 5400 5401 5401 5400 5400 5400 5401 5401 5401 5400 5400 5400 5401 5401 5401 5401 5401 5401 5402 5402 5401 5401 5400 5400 5399 5399 5401
5393 5392 5392 5392 5391 5390 5389 5389 5388 5387 5386 5386 5387 5388 5389 5390 5391 5393 5393 5392 5392 5392 5393 5393 5393 5393 5394 5394 5394 5394 5393 5393 5394 5395 5395 5395 5395 5395 5394 5393 5392 5392 5394
5385 5385 5384 5384 5383 5383 5382 5381 5380 5380 5380 5380 5380 5381 5382 5382 5384 5386 5386 5386 5385 5385 5385 5385 5386 5386 5387 5388 5387 5387 5386 5386 5386 5387 5387 5387 5388 5387 5387 5386 5385 5384 5384
5377 5377 5377 5377 5376 5376 5376 5375 5373 5373 5373 5372 5373 5374 5375 5376 5377 5379 5379 5379 5379 5379 5379 5379 5379 5380 5381 5381 5381 5381 5380 5380 5379 5379 5379 5379 5379 5379 5379 5378 5377 5377 5377
5370 5370 5370 5370 5370 5370 5369 5368 5368 5366 5366 5365 5366 5367 5368 5369 5370 5372 5373 5374 5375 5374 5374 5374 5373 5374 5374 5374 5374 5374 5374 5373 5372 5372 5371 5371 5372 5371 5371 5371 5371 5370 5371
5363 5363 5363 5363 5362 5363 5362 5362 5362 5361 5360 5360 5361 5361 5362 5364 5365 5367 5368 5369 5369 5369 5368 5368 5368 5368 5367 5367 5367 5367 5366 5365 5365 5364 5364 5364 5364 5364 5363 5363 5364 5364 5365
5357 5357 5357 5357 5356 5356 5357 5357 5357 5356 5356 5356 5357 5357 5358 5359 5360 5361 5362 5362 5363 5363 5362 5362 5362 5361 5360 5359 5359 5359 5358 5358 5357 5356 5356 5356 5356 5356 5356 5356 5356 5356 5357
5351 5351 5352 5352 5351 5351 5351 5351 5352 5352 5352 5353 5353 5353 5354 5355 5357 5358 5358 5358 5358 5358 5357 5355 5354 5353 5352 5352 5351 5351 5351 5350 5349 5349 5349 5348 5349 5349 5349 5349 5349 5350 5350
5346 5346 5346 5346 5346 5346 5346 5346 5348 5349 5350 5351 5352 5352 5352 5353 5354 5354 5355 5355 5355 5354 5352 5350 5349 5348 5347 5346 5345 5344 5344 5343 5343 5342 5342 5342 5342 5342 5342 5343 5343 5344 5344
5341 5341 5341 5341 5341 5341 5342 5342 5343 5344 5346 5347 5348 5349 5349 5350 5350 5350 5350 5350 5349 5348 5346 5345 5344 5343 5342 5341 5340 5339 5338 5337 5336 5336 5336 5335 5335 5335 5336 5337 5338 5338 5340
5337 5337 5337 5336 5336 5337 5337 5338 5338 5339 5340 5340 5342 5343 5344 5345 5345 5345 5345 5344 5342 5341 5340 5339 5338 5337 5336 5335 5334 5333 5332 5331 5331 5330 5330 5330 5330 5330 5331 5332 5333 5334 5335
5332 5332 5332 5332 5332 5333 5333 5333 5334 5334 5334 5335 5336 5337 5338 5339 5339 5339 5339 5337 5337 5336 5335 5335 5334 5332 5331 5330 5329 5328 5327 5326 5326 5325 5325 5325 5325 5325 5326 5328 5329 5331 5332
5328 5329 5329 5328 5328 5328 5328 5328 5329 5329 5329 5330 5331 5331 5332 5332 5332 5332 5332 5332 5332 5331 5331 5330 5329 5328 5327 5326 5325 5324 5323 5322 5322 5321 5321 5321 5321 5322 5323 5324 5326 5327 5328
5324 5324 5325 5324 5323 5323 5324 5324 5324 5324 5324 5325 5326 5328 5329 5328 5327 5327 5327 5326 5326 5326 5326 5326 5325 5324 5323 5322 5321 5321 5320 5319 5319 5318 5318 5318 5319 5320 5321 5322 5323 5324 5326
5320 5320 5320 5319 5319 5319 5319 5319 5319 5319 5320 5320 5321 5323 5325 5324 5324 5323 5323 5323 5323 5322 5323 5322 5322 5321 5321 5320 5319 5318 5318 5317 5317 5317 5316 5317 5317 5318 5319 5321 5322 5322 5323
5316 5316 5316 5316 5316 5316 5316 5315 5315 5315 5316 5316 5317 5319 5320 5320 5320 5320 5320 5320 5319 5319 5320 5320 5319 5319 5319 5318 5317 5317 5316 5316 5316 5315 5315 5316 5316 5317 5318 5319 5320 5321 5322
5312 5312 5312 5312 5312 5311 5311 5311 5312 5312 5313 5313 5314 5315 5316 5317 5317 5317 5317 5317 5317 5317 5317 5318 5318 5318 5317 5316 5316 5316 5316 5315 5315 5315 5315 5316 5316 5317 5318 5318 5319 5320 5320
5309 5309 5309 5308 5308 5308 5307 5308 5308 5309 5309 5311 5312 5313 5313 5314 5314 5314 5314 5314 5314 5315 5315 5315 5316 5316 5316 5315 5315 5315 5316 5316 5316 5316 5316 5316 5317 5317 5318 5318 5318 5319 5319
5306 5306 5306 5306 5305 5305 5305 5305 5306 5306 5307 5308 5309 5310 5310 5311 5311 5311 5311 5311 5312 5312 5313 5313 5314 5314 5314 5315 5315 5316 5316 5317 5317 5317 5317 5317 5318 5318 5318 5318 5318 5319 5319